Location: Helsinki
(60.1699°N, 24.9384°E)
Time: 23:57:51
(UTC+02:00)

A-11 Canister half - Pass Details

Date: 02 November 2020
Orbit: 1516 x 1684 km, 47.2° (Epoch: 26 November)

Event Time Altitude Azimuth Distance (km) Brightness Sun altitude
Rises 22:49:37 0° 260° (W) 4,928 11.8 -42.9°
Reaches altitude 10° 22:53:06 10° 253° (WSW) 3,927 11.1 -43.1°
Enters shadow 22:54:31 15° 249° (WSW) 3,547 10.9 -43.2°
Maximum altitude 23:01:57 37° 191° (SSW) 2,348 - -43.5°
Drops below altitude 10° 23:10:34 10° 129° (SE) 3,818 - -43.9°
Sets 23:13:54 0° 122° (ESE) 4,778 - -44.0°
